| time (UTC) | temp C | wind direction | speed KPH | gust KPH | rain 1hr cm | rain 24hr cm | rain mn cm | humidity % | barometer mb |
| 20260507075746 | 6 | 354 | 3.2 | 4.8 | 0.00 | 0.00 | 0.00 | 66 | 1014.1 |
| 20260507075243 | 6 | 315 | 3.2 | 4.8 | 0.00 | 0.00 | 0.00 | 66 | 1014.2 |
| 20260507074739 | 6 | 7 | 0.0 | 1.6 | 0.00 | 0.00 | 0.00 | 68 | 1014.3 |
| 20260507074237 | 6 | 234 | 3.2 | 3.2 | 0.00 | 0.00 | 0.00 | 67 | 1014.1 |
| 20260507073733 | 6 | 35 | 0.0 | 0.0 | 0.00 | 0.00 | 0.00 | 68 | 1014.3 |
| 20260507073230 | 6 | 206 | 3.2 | 3.2 | 0.00 | 0.00 | 0.00 | 67 | 1014.2 |
| 20260507072728 | 6 | 24 | 0.0 | 1.6 | 0.00 | 0.00 | 0.00 | 67 | 1014.4 |
| 20260507072225 | 6 | 342 | 1.6 | 1.6 | 0.00 | 0.00 | 0.00 | 67 | 1014.2 |
| 20260507071723 | 6 | 295 | 0.0 | 0.0 | 0.00 | 0.00 | 0.00 | 69 | 1014.2 |
| 20260507071219 | 6 | 269 | 1.6 | 3.2 | 0.00 | 0.00 | 0.00 | 68 | 1014.4 |
| 20260507070716 | 6 | 351 | 0.0 | 1.6 | 0.00 | 0.00 | 0.00 | 67 | 1014.3 |
| 20260507070213 | 6 | 297 | 4.8 | 4.8 | 0.00 | 0.00 | 0.00 | 67 | 1014.3 |
| 20260507065709 | 6 | 173 | 1.6 | 1.6 | 0.00 | 0.00 | 0.00 | 67 | 1014.2 |
| 20260507065206 | 6 | 138 | 1.6 | 1.6 | 0.00 | 0.00 | 0.00 | 66 | 1014.4 |
| 20260507064704 | 7 | 272 | 4.8 | 8.0 | 0.00 | 0.00 | 0.00 | 63 | 1014.5 |
| 20260507064203 | 7 | 21 | 0.0 | 1.6 | 0.00 | 0.00 | 0.00 | 63 | 1014.4 |
| 20260507063659 | 7 | 289 | 4.8 | 4.8 | 0.00 | 0.00 | 0.00 | 62 | 1014.4 |
| 20260507063156 | 7 | 311 | 4.8 | 4.8 | 0.00 | 0.00 | 0.00 | 62 | 1014.5 |
| 20260507062653 | 7 | 324 | 1.6 | 3.2 | 0.00 | 0.00 | 0.00 | 63 | 1014.3 |
| 20260507062150 | 7 | 316 | 6.4 | 8.0 | 0.00 | 0.00 | 0.00 | 63 | 1014.5 |
| 20260507061648 | 7 | 271 | 4.8 | 4.8 | 0.00 | 0.00 | 0.00 | 62 | 1014.6 |
| 20260507061146 | 7 | 336 | 4.8 | 4.8 | 0.00 | 0.00 | 0.00 | 63 | 1014.6 |
| 20260507060644 | 7 | 325 | 1.6 | 3.2 | 0.00 | 0.00 | 0.00 | 62 | 1014.5 |
| 20260507060140 | 7 | 277 | 4.8 | 8.0 | 0.00 | 0.00 | 0.00 | 63 | 1014.3 |
| 20260507055635 | 7 | 11 | 3.2 | 3.2 | 0.00 | 0.00 | 0.00 | 63 | 1014.5 |
| 20260507055132 | 7 | 269 | 1.6 | 1.6 | 0.00 | 0.00 | 0.00 | 62 | 1014.3 |
| 20260507054628 | 7 | 8 | 1.6 | 1.6 | 0.00 | 0.00 | 0.00 | 62 | 1014.3 |
| 20260507054125 | 7 | 326 | 4.8 | 8.0 | 0.00 | 0.00 | 0.00 | 60 | 1014.2 |
| 20260507053623 | 7 | 312 | 4.8 | 4.8 | 0.00 | 0.00 | 0.00 | 62 | 1014.4 |
| 20260507053121 | 7 | 326 | 6.4 | 8.0 | 0.00 | 0.00 | 0.00 | 61 | 1014.2 |
| 20260507052619 | 7 | 278 | 6.4 | 8.0 | 0.00 | 0.00 | 0.00 | 62 | 1014.5 |
| 20260507052115 | 7 | 285 | 8.0 | 9.7 | 0.00 | 0.00 | 0.00 | 62 | 1014.3 |
| 20260507051613 | 7 | 254 | 4.8 | 4.8 | 0.00 | 0.00 | 0.00 | 63 | 1014.4 |
| 20260507051109 | 7 | 313 | 3.2 | 4.8 | 0.00 | 0.00 | 0.00 | 64 | 1014.4 |
| 20260507050606 | 7 | 243 | 3.2 | 4.8 | 0.00 | 0.00 | 0.00 | 63 | 1014.3 |
| 20260507050103 | 7 | 257 | 1.6 | 3.2 | 0.00 | 0.00 | 0.00 | 66 | 1014.2 |
| 20260507045559 | 7 | 280 | 3.2 | 3.2 | 0.00 | 0.00 | 0.00 | 65 | 1014.4 |
| 20260507045056 | 7 | 188 | 1.6 | 1.6 | 0.00 | 0.00 | 0.00 | 64 | 1014.1 |
| 20260507044553 | 7 | 262 | 1.6 | 1.6 | 0.00 | 0.00 | 0.00 | 67 | 1014.3 |
| 20260507044050 | 7 | 311 | 1.6 | 1.6 | 0.00 | 0.00 | 0.00 | 67 | 1014.2 |
| 20260507043545 | 8 | 227 | 1.6 | 3.2 | 0.00 | 0.00 | 0.00 | 66 | 1014.2 |
| 20260507043043 | 8 | 182 | 1.6 | 1.6 | 0.00 | 0.00 | 0.00 | 65 | 1014.5 |
| 20260507042539 | 8 | 263 | 3.2 | 3.2 | 0.00 | 0.00 | 0.00 | 67 | 1014.2 |
| 20260507042035 | 8 | 351 | 1.6 | 1.6 | 0.00 | 0.00 | 0.00 | 66 | 1013.8 |
| 20260507041532 | 8 | 205 | 3.2 | 4.8 | 0.00 | 0.00 | 0.00 | 66 | 1014.2 |
| 20260507041029 | 8 | 334 | 1.6 | 3.2 | 0.00 | 0.00 | 0.00 | 65 | 1014.0 |
| 20260507040525 | 8 | 201 | 4.8 | 4.8 | 0.00 | 0.00 | 0.00 | 64 | 1014.1 |
| 20260507040021 | 8 | 132 | 1.6 | 1.6 | 0.00 | 0.05 | 0.05 | 66 | 1014.1 |
| 20260507035518 | 8 | 159 | 3.2 | 3.2 | 0.00 | 0.05 | 0.05 | 66 | 1014.2 |
| 20260507035014 | 8 | 203 | 1.6 | 1.6 | 0.00 | 0.05 | 0.05 | 67 | 1014.0 |
| 20260507034511 | 8 | 192 | 1.6 | 1.6 | 0.00 | 0.05 | 0.05 | 65 | 1013.9 |
| 20260507034009 | 8 | 245 | 1.6 | 1.6 | 0.00 | 0.05 | 0.05 | 63 | 1014.0 |
| 20260507033507 | 8 | 191 | 3.2 | 3.2 | 0.00 | 0.05 | 0.05 | 67 | 1014.1 |
| 20260507033004 | 8 | 211 | 1.6 | 1.6 | 0.00 | 0.05 | 0.05 | 66 | 1014.1 |
| 20260507032501 | 8 | 175 | 1.6 | 1.6 | 0.00 | 0.05 | 0.05 | 65 | 1014.3 |
| 20260507031957 | 8 | 209 | 0.0 | 0.0 | 0.00 | 0.05 | 0.05 | 64 | 1014.3 |
| 20260507031453 | 8 | 194 | 0.0 | 0.0 | 0.00 | 0.05 | 0.05 | 64 | 1013.9 |
| 20260507030950 | 8 | 201 | 1.6 | 1.6 | 0.00 | 0.05 | 0.05 | 63 | 1014.1 |
| 20260507030447 | 8 | 259 | 3.2 | 3.2 | 0.00 | 0.05 | 0.05 | 63 | 1013.9 |
| 20260507025944 | 8 | 154 | 0.0 | 0.0 | 0.00 | 0.05 | 0.05 | 63 | 1014.1 |
| 20260507025441 | 8 | 133 | 1.6 | 1.6 | 0.00 | 0.05 | 0.05 | 62 | 1014.0 |
| 20260507024939 | 9 | 134 | 0.0 | 0.0 | 0.00 | 0.05 | 0.05 | 62 | 1013.9 |
| 20260507024437 | 9 | 190 | 3.2 | 3.2 | 0.00 | 0.05 | 0.05 | 61 | 1013.9 |
| 20260507023932 | 9 | 194 | 3.2 | 3.2 | 0.00 | 0.05 | 0.05 | 62 | 1014.1 |
| 20260507023429 | 9 | 217 | 1.6 | 1.6 | 0.00 | 0.05 | 0.05 | 60 | 1014.1 |
| 20260507022926 | 10 | 118 | 1.6 | 1.6 | 0.00 | 0.05 | 0.05 | 59 | 1014.0 |
| 20260507022424 | 10 | 199 | 0.0 | 0.0 | 0.00 | 0.05 | 0.05 | 60 | 1013.9 |
| 20260507021919 | 10 | 169 | 0.0 | 0.0 | 0.00 | 0.05 | 0.05 | 58 | 1013.7 |
| 20260507021414 | 10 | 154 | 0.0 | 0.0 | 0.00 | 0.05 | 0.05 | 57 | 1013.9 |
| 20260507020912 | 10 | 164 | 0.0 | 1.6 | 0.00 | 0.05 | 0.05 | 58 | 1013.9 |
| 20260507020408 | 10 | 156 | 1.6 | 1.6 | 0.00 | 0.05 | 0.05 | 57 | 1013.9 |
| 20260507015906 | 10 | 117 | 0.0 | 1.6 | 0.00 | 0.05 | 0.05 | 57 | 1014.0 |
| 20260507015404 | 10 | 248 | 3.2 | 3.2 | 0.00 | 0.05 | 0.05 | 55 | 1013.8 |
| 20260507014901 | 10 | 167 | 0.0 | 0.0 | 0.00 | 0.05 | 0.05 | 54 | 1013.8 |
| 20260507014356 | 10 | 229 | 1.6 | 1.6 | 0.00 | 0.05 | 0.05 | 54 | 1013.9 |
| 20260507013853 | 10 | 185 | 1.6 | 1.6 | 0.00 | 0.05 | 0.05 | 55 | 1014.0 |
| 20260507013350 | 10 | 174 | 0.0 | 0.0 | 0.00 | 0.05 | 0.05 | 55 | 1013.8 |
| 20260507012848 | 11 | 245 | 1.6 | 1.6 | 0.00 | 0.05 | 0.05 | 53 | 1013.5 |
| 20260507012343 | 11 | 181 | 1.6 | 1.6 | 0.00 | 0.05 | 0.05 | 53 | 1013.4 |
| 20260507011840 | 11 | 127 | 0.0 | 0.0 | 0.00 | 0.05 | 0.05 | 54 | 1013.7 |
| 20260507011337 | 11 | 174 | 1.6 | 1.6 | 0.00 | 0.05 | 0.05 | 51 | 1013.5 |
| 20260507010832 | 11 | 295 | 4.8 | 4.8 | 0.00 | 0.05 | 0.05 | 50 | 1013.6 |
| 20260507010328 | 11 | 259 | 3.2 | 3.2 | 0.00 | 0.05 | 0.05 | 50 | 1013.6 |
| 20260507005825 | 11 | 211 | 6.4 | 8.0 | 0.00 | 0.05 | 0.05 | 50 | 1013.4 |
| 20260507005322 | 11 | 40 | 0.0 | 1.6 | 0.00 | 0.05 | 0.05 | 52 | 1013.3 |
| 20260507004819 | 11 | 193 | 1.6 | 1.6 | 0.00 | 0.05 | 0.05 | 49 | 1012.9 |
| 20260507004316 | 11 | 179 | 1.6 | 1.6 | 0.00 | 0.05 | 0.05 | 53 | 1013.2 |
| 20260507003813 | 11 | 200 | 0.0 | 0.0 | 0.00 | 0.05 | 0.05 | 50 | 1012.9 |
| 20260507003308 | 11 | 43 | 0.0 | 1.6 | 0.00 | 0.05 | 0.05 | 49 | 1013.0 |
| 20260507002803 | 11 | 267 | 4.8 | 4.8 | 0.00 | 0.05 | 0.05 | 46 | 1012.9 |
| 20260507002300 | 12 | 23 | 1.6 | 1.6 | 0.00 | 0.05 | 0.05 | 45 | 1013.0 |
| 20260507001757 | 11 | 234 | 3.2 | 3.2 | 0.00 | 0.05 | 0.05 | 46 | 1013.0 |
| 20260507001254 | 12 | 279 | 4.8 | 4.8 | 0.00 | 0.05 | 0.05 | 45 | 1012.8 |
| 20260507000750 | 12 | 15 | 1.6 | 1.6 | 0.00 | 0.05 | 0.05 | 44 | 1012.9 |
| 20260507000246 | 12 | 204 | 4.8 | 8.0 | 0.00 | 0.05 | 0.05 | 45 | 1013.0 |
| 20260506235743 | 12 | 191 | 3.2 | 3.2 | 0.00 | 0.05 | 0.05 | 47 | 1012.8 |
| 20260506235238 | 12 | 275 | 8.0 | 9.7 | 0.00 | 0.05 | 0.05 | 44 | 1012.9 |
| 20260506234736 | 12 | 298 | 1.6 | 1.6 | 0.00 | 0.05 | 0.05 | 46 | 1013.0 |
| 20260506234233 | 12 | 307 | 1.6 | 3.2 | 0.00 | 0.05 | 0.05 | 45 | 1012.8 |
| 20260506233730 | 12 | 324 | 6.4 | 8.0 | 0.00 | 0.05 | 0.05 | 43 | 1013.1 |
| 20260506233227 | 12 | 270 | 4.8 | 4.8 | 0.00 | 0.05 | 0.05 | 43 | 1012.9 |
| 20260506232723 | 12 | 5 | 4.8 | 4.8 | 0.00 | 0.05 | 0.05 | 42 | 1013.0 |
| 20260506232218 | 12 | 291 | 4.8 | 4.8 | 0.00 | 0.05 | 0.05 | 41 | 1013.2 |
| 20260506231716 | 12 | 328 | 3.2 | 3.2 | 0.00 | 0.05 | 0.05 | 44 | 1013.1 |
| 20260506231214 | 12 | 320 | 4.8 | 4.8 | 0.00 | 0.05 | 0.05 | 43 | 1013.3 |
| 20260506230710 | 12 | 241 | 8.0 | 9.7 | 0.00 | 0.05 | 0.05 | 41 | 1013.0 |
| 20260506230208 | 12 | 204 | 3.2 | 3.2 | 0.00 | 0.05 | 0.05 | 43 | 1013.0 |
| 20260506225704 | 12 | 286 | 3.2 | 4.8 | 0.00 | 0.05 | 0.05 | 43 | 1013.1 |
| 20260506225201 | 12 | 18 | 1.6 | 3.2 | 0.00 | 0.05 | 0.05 | 41 | 1013.0 |
| 20260506224657 | 12 | 319 | 3.2 | 3.2 | 0.00 | 0.05 | 0.05 | 43 | 1013.2 |
| 20260506224154 | 12 | 197 | 3.2 | 3.2 | 0.00 | 0.05 | 0.05 | 43 | 1012.9 |
| 20260506223651 | 12 | 88 | 1.6 | 1.6 | 0.00 | 0.05 | 0.05 | 43 | 1013.2 |
| 20260506223146 | 12 | 339 | 1.6 | 1.6 | 0.00 | 0.05 | 0.05 | 42 | 1013.1 |
| 20260506222643 | 13 | 345 | 4.8 | 8.0 | 0.00 | 0.05 | 0.05 | 41 | 1013.1 |
| 20260506222139 | 13 | 306 | 3.2 | 4.8 | 0.00 | 0.05 | 0.05 | 45 | 1013.1 |
| 20260506221637 | 12 | 314 | 8.0 | 9.7 | 0.00 | 0.05 | 0.05 | 42 | 1013.1 |
| 20260506221135 | 12 | 293 | 4.8 | 4.8 | 0.00 | 0.05 | 0.05 | 39 | 1013.0 |
| 20260506220632 | 13 | 244 | 6.4 | 8.0 | 0.00 | 0.05 | 0.05 | 41 | 1012.9 |
| 20260506220127 | 13 | 334 | 4.8 | 4.8 | 0.00 | 0.05 | 0.05 | 43 | 1013.1 |
| 20260506215624 | 13 | 128 | 0.0 | 1.6 | 0.00 | 0.05 | 0.05 | 41 | 1012.9 |
| 20260506215119 | 13 | 322 | 8.0 | 9.7 | 0.00 | 0.05 | 0.05 | 41 | 1012.8 |
| 20260506214616 | 13 | 290 | 6.4 | 8.0 | 0.00 | 0.05 | 0.05 | 42 | 1012.9 |
| 20260506214114 | 13 | 349 | 9.7 | 11.3 | 0.00 | 0.05 | 0.05 | 39 | 1012.9 |
| 20260506213612 | 13 | 325 | 6.4 | 9.7 | 0.00 | 0.05 | 0.05 | 42 | 1012.9 |
| 20260506213109 | 13 | 250 | 6.4 | 8.0 | 0.00 | 0.05 | 0.05 | 40 | 1012.9 |
| 20260506212606 | 13 | 356 | 4.8 | 4.8 | 0.00 | 0.05 | 0.05 | 39 | 1013.0 |
| 20260506212101 | 13 | 334 | 9.7 | 11.3 | 0.00 | 0.05 | 0.05 | 41 | 1012.9 |
| 20260506211557 | 13 | 282 | 6.4 | 8.0 | 0.00 | 0.05 | 0.05 | 42 | 1013.2 |
| 20260506211054 | 13 | 281 | 4.8 | 4.8 | 0.00 | 0.05 | 0.05 | 45 | 1013.0 |
| 20260506210550 | 12 | 309 | 8.0 | 9.7 | 0.00 | 0.05 | 0.05 | 40 | 1013.1 |
| 20260506210047 | 12 | 215 | 6.4 | 8.0 | 0.00 | 0.05 | 0.05 | 39 | 1013.3 |
| 20260506205544 | 13 | 277 | 4.8 | 4.8 | 0.00 | 0.05 | 0.05 | 39 | 1013.1 |
| 20260506205039 | 13 | 198 | 3.2 | 3.2 | 0.00 | 0.05 | 0.05 | 42 | 1013.0 |
| 20260506204537 | 13 | 8 | 4.8 | 4.8 | 0.00 | 0.05 | 0.05 | 39 | 1013.0 |
| 20260506204034 | 13 | 285 | 4.8 | 4.8 | 0.00 | 0.05 | 0.05 | 37 | 1013.2 |
| 20260506203532 | 13 | 350 | 9.7 | 11.3 | 0.00 | 0.05 | 0.05 | 41 | 1013.2 |
| 20260506203029 | 12 | 349 | 8.0 | 9.7 | 0.00 | 0.05 | 0.05 | 41 | 1013.1 |
| 20260506202526 | 12 | 346 | 9.7 | 11.3 | 0.00 | 0.05 | 0.05 | 40 | 1012.9 |
| 20260506202022 | 12 | 340 | 8.0 | 11.3 | 0.00 | 0.05 | 0.05 | 44 | 1013.2 |
| 20260506201520 | 13 | 324 | 11.3 | 14.5 | 0.00 | 0.05 | 0.05 | 41 | 1013.0 |
| 20260506201016 | 13 | 193 | 8.0 | 9.7 | 0.00 | 0.05 | 0.05 | 43 | 1013.0 |
| 20260506200512 | 13 | 261 | 6.4 | 8.0 | 0.00 | 0.05 | 0.05 | 41 | 1013.0 |
| 20260506200010 | 12 | 347 | 3.2 | 3.2 | 0.00 | 0.05 | 0.05 | 46 | 1013.1 |
| 20260506195507 | 12 | 260 | 8.0 | 9.7 | 0.00 | 0.05 | 0.05 | 40 | 1013.2 |
| 20260506195003 | 12 | 350 | 9.7 | 12.9 | 0.00 | 0.05 | 0.05 | 42 | 1013.1 |
| 20260506194500 | 12 | 267 | 3.2 | 4.8 | 0.00 | 0.05 | 0.05 | 42 | 1013.4 |
| 20260506193956 | 12 | 296 | 6.4 | 8.0 | 0.00 | 0.05 | 0.05 | 39 | 1013.2 |
| 20260506193454 | 12 | 254 | 4.8 | 8.0 | 0.00 | 0.05 | 0.05 | 43 | 1013.4 |
| 20260506192950 | 12 | 346 | 6.4 | 8.0 | 0.00 | 0.05 | 0.05 | 40 | 1013.6 |
| 20260506192448 | 12 | 270 | 4.8 | 4.8 | 0.00 | 0.05 | 0.05 | 48 | 1013.4 |
| 20260506191944 | 12 | 253 | 6.4 | 8.0 | 0.00 | 0.05 | 0.05 | 41 | 1013.5 |
| 20260506191441 | 12 | 173 | 4.8 | 8.0 | 0.00 | 0.05 | 0.05 | 44 | 1013.5 |
| 20260506190937 | 12 | 287 | 3.2 | 3.2 | 0.00 | 0.05 | 0.05 | 47 | 1013.5 |
| 20260506190434 | 12 | 323 | 4.8 | 8.0 | 0.00 | 0.05 | 0.05 | 41 | 1013.5 |
| 20260506185931 | 12 | 301 | 4.8 | 8.0 | 0.00 | 0.05 | 0.05 | 45 | 1013.4 |
| 20260506185428 | 12 | 357 | 6.4 | 8.0 | 0.00 | 0.05 | 0.05 | 43 | 1013.4 |
| 20260506184925 | 12 | 317 | 3.2 | 3.2 | 0.00 | 0.05 | 0.05 | 40 | 1013.4 |
| 20260506184422 | 12 | 290 | 4.8 | 8.0 | 0.00 | 0.05 | 0.05 | 43 | 1013.5 |
| 20260506183919 | 11 | 351 | 8.0 | 9.7 | 0.00 | 0.05 | 0.05 | 44 | 1013.5 |
| 20260506183414 | 12 | 19 | 11.3 | 12.9 | 0.00 | 0.05 | 0.05 | 42 | 1013.4 |
| 20260506182912 | 12 | 323 | 1.6 | 3.2 | 0.00 | 0.05 | 0.05 | 47 | 1013.5 |
| 20260506182409 | 12 | 332 | 4.8 | 8.0 | 0.00 | 0.05 | 0.05 | 46 | 1013.5 |
| 20260506181906 | 12 | 352 | 4.8 | 4.8 | 0.00 | 0.05 | 0.05 | 45 | 1013.5 |
| 20260506181404 | 11 | 265 | 4.8 | 8.0 | 0.00 | 0.05 | 0.05 | 44 | 1013.6 |
| 20260506180901 | 11 | 327 | 8.0 | 9.7 | 0.00 | 0.05 | 0.05 | 43 | 1013.6 |
| 20260506180357 | 11 | 335 | 9.7 | 12.9 | 0.00 | 0.05 | 0.05 | 42 | 1013.7 |
| 20260506175854 | 12 | 287 | 4.8 | 8.0 | 0.00 | 0.05 | 0.05 | 40 | 1013.5 |
| 20260506175350 | 12 | 335 | 4.8 | 4.8 | 0.00 | 0.05 | 0.05 | 44 | 1013.3 |
| 20260506174847 | 12 | 17 | 1.6 | 1.6 | 0.00 | 0.05 | 0.05 | 41 | 1013.3 |
| 20260506174345 | 12 | 280 | 8.0 | 8.0 | 0.00 | 0.05 | 0.05 | 41 | 1013.4 |
| 20260506173843 | 12 | 29 | 4.8 | 4.8 | 0.00 | 0.05 | 0.05 | 39 | 1013.4 |
| 20260506173339 | 12 | 324 | 12.9 | 16.1 | 0.00 | 0.05 | 0.05 | 41 | 1013.3 |
| 20260506172836 | 12 | 335 | 1.6 | 3.2 | 0.00 | 0.05 | 0.05 | 43 | 1013.2 |
| 20260506172333 | 12 | 312 | 8.0 | 11.3 | 0.00 | 0.05 | 0.05 | 43 | 1013.2 |
| 20260506171830 | 12 | 324 | 3.2 | 3.2 | 0.00 | 0.05 | 0.05 | 42 | 1013.4 |
| 20260506171327 | 12 | 191 | 0.0 | 1.6 | 0.00 | 0.05 | 0.05 | 42 | 1013.5 |
| 20260506170825 | 12 | 351 | 9.7 | 11.3 | 0.00 | 0.05 | 0.05 | 41 | 1013.4 |
| 20260506170320 | 12 | 347 | 1.6 | 3.2 | 0.00 | 0.05 | 0.05 | 45 | 1013.3 |
| 20260506165820 | 12 | 295 | 4.8 | 4.8 | 0.00 | 0.05 | 0.05 | 43 | 1013.4 |
| 20260506165317 | 12 | 304 | 3.2 | 8.0 | 0.00 | 0.05 | 0.05 | 43 | 1013.5 |
| 20260506164813 | 12 | 356 | 12.9 | 12.9 | 0.00 | 0.05 | 0.05 | 40 | 1013.4 |
| 20260506164310 | 12 | 323 | 4.8 | 4.8 | 0.00 | 0.05 | 0.05 | 43 | 1013.4 |
| 20260506163807 | 12 | 244 | 1.6 | 3.2 | 0.00 | 0.05 | 0.05 | 45 | 1013.4 |
| 20260506163302 | 12 | 332 | 8.0 | 11.3 | 0.00 | 0.05 | 0.05 | 43 | 1013.6 |
| 20260506162758 | 12 | 37 | 3.2 | 4.8 | 0.00 | 0.05 | 0.05 | 41 | 1013.4 |
| 20260506162256 | 12 | 332 | 4.8 | 4.8 | 0.00 | 0.05 | 0.05 | 42 | 1013.4 |
| 20260506161753 | 12 | 304 | 8.0 | 9.7 | 0.00 | 0.05 | 0.05 | 41 | 1013.4 |
| 20260506161250 | 12 | 345 | 8.0 | 9.7 | 0.00 | 0.05 | 0.05 | 39 | 1013.2 |
| 20260506160748 | 12 | 19 | 1.6 | 1.6 | 0.00 | 0.05 | 0.05 | 43 | 1013.4 |
| 20260506160244 | 12 | 300 | 11.3 | 12.9 | 0.00 | 0.05 | 0.05 | 43 | 1013.4 |
| 20260506155743 | 12 | 244 | 8.0 | 11.3 | 0.00 | 0.05 | 0.05 | 45 | 1013.5 |
| 20260506155239 | 12 | 341 | 8.0 | 9.7 | 0.00 | 0.05 | 0.05 | 44 | 1013.3 |
| 20260506153347 | 12 | 336 | 6.4 | 9.7 | 0.00 | 0.05 | 0.05 | 44 | 1013.5 |
| 20260506152843 | 12 | 279 | 3.2 | 3.2 | 0.00 | 0.05 | 0.05 | 43 | 1013.4 |
| 20260506152341 | 12 | 249 | 4.8 | 4.8 | 0.00 | 0.05 | 0.05 | 47 | 1013.5 |
| 20260506151839 | 12 | 327 | 8.0 | 11.3 | 0.00 | 0.05 | 0.05 | 50 | 1013.5 |
| 20260506151335 | 11 | 358 | 6.4 | 8.0 | 0.00 | 0.05 | 0.05 | 45 | 1013.3 |
| 20260506150833 | 11 | 5 | 4.8 | 4.8 | 0.00 | 0.05 | 0.05 | 43 | 1013.2 |
| 20260506150329 | 11 | 339 | 1.6 | 3.2 | 0.00 | 0.05 | 0.05 | 48 | 1013.2 |
| 20260506145826 | 11 | 323 | 11.3 | 12.9 | 0.00 | 0.05 | 0.05 | 47 | 1013.3 |
| 20260506145322 | 12 | 145 | 1.6 | 1.6 | 0.00 | 0.05 | 0.05 | 46 | 1012.9 |
| 20260506144820 | 11 | 16 | 3.2 | 3.2 | 0.00 | 0.05 | 0.05 | 46 | 1013.2 |
| 20260506144317 | 11 | 315 | 11.3 | 11.3 | 0.00 | 0.05 | 0.05 | 48 | 1013.0 |
| 20260506143815 | 11 | 342 | 4.8 | 4.8 | 0.00 | 0.05 | 0.05 | 44 | 1013.1 |
| 20260506143312 | 11 | 2 | 4.8 | 8.0 | 0.00 | 0.05 | 0.05 | 45 | 1013.2 |
| 20260506142810 | 11 | 337 | 8.0 | 9.7 | 0.00 | 0.05 | 0.05 | 47 | 1013.0 |
| 20260506142308 | 11 | 301 | 6.4 | 8.0 | 0.00 | 0.05 | 0.05 | 50 | 1012.9 |
| 20260506141806 | 10 | 357 | 9.7 | 12.9 | 0.00 | 0.05 | 0.05 | 46 | 1013.0 |
| 20260506141304 | 10 | 322 | 8.0 | 11.3 | 0.00 | 0.05 | 0.05 | 52 | 1012.7 |
| 20260506140801 | 10 | 315 | 6.4 | 9.7 | 0.00 | 0.05 | 0.05 | 54 | 1012.8 |
| 20260506140258 | 10 | 34 | 1.6 | 3.2 | 0.00 | 0.05 | 0.05 | 50 | 1012.7 |
| 20260506135755 | 10 | 357 | 8.0 | 11.3 | 0.00 | 0.05 | 0.05 | 52 | 1012.7 |
| 20260506135251 | 10 | 334 | 11.3 | 12.9 | 0.00 | 0.05 | 0.05 | 54 | 1012.7 |
| 20260506134748 | 10 | 334 | 8.0 | 11.3 | 0.00 | 0.05 | 0.05 | 56 | 1012.6 |
| 20260506134244 | 10 | 350 | 8.0 | 9.7 | 0.00 | 0.05 | 0.05 | 54 | 1012.7 |
| 20260506133742 | 10 | 357 | 4.8 | 8.0 | 0.00 | 0.05 | 0.05 | 55 | 1012.7 |
| 20260506133238 | 10 | 39 | 3.2 | 3.2 | 0.00 | 0.05 | 0.05 | 55 | 1012.2 |
| 20260506132735 | 10 | 349 | 8.0 | 9.7 | 0.00 | 0.05 | 0.05 | 57 | 1012.7 |
| 20260506132232 | 9 | 47 | 3.2 | 3.2 | 0.00 | 0.05 | 0.05 | 58 | 1012.8 |
| 20260506131730 | 9 | 343 | 6.4 | 9.7 | 0.00 | 0.05 | 0.05 | 56 | 1012.9 |
| 20260506131226 | 9 | 39 | 0.0 | 0.0 | 0.00 | 0.05 | 0.05 | 62 | 1012.2 |
| 20260506130723 | 8 | 352 | 3.2 | 3.2 | 0.00 | 0.05 | 0.05 | 65 | 1012.1 |
| 20260506130220 | 8 | 3 | 3.2 | 3.2 | 0.00 | 0.05 | 0.05 | 65 | 1012.0 |
| 20260506125718 | 8 | 42 | 1.6 | 1.6 | 0.00 | 0.05 | 0.05 | 65 | 1012.0 |
| 20260506125215 | 8 | 5 | 4.8 | 4.8 | 0.00 | 0.05 | 0.05 | 66 | 1012.1 |
| 20260506124713 | 8 | 355 | 3.2 | 3.2 | 0.00 | 0.05 | 0.05 | 68 | 1012.0 |
| 20260506124211 | 8 | 31 | 1.6 | 3.2 | 0.00 | 0.05 | 0.05 | 69 | 1012.0 |
| 20260506123708 | 8 | 3 | 4.8 | 4.8 | 0.00 | 0.05 | 0.05 | 70 | 1011.9 |
| 20260506123207 | 8 | 22 | 3.2 | 3.2 | 0.00 | 0.05 | 0.05 | 70 | 1011.8 |
| 20260506122703 | 8 | 25 | 1.6 | 3.2 | 0.00 | 0.05 | 0.05 | 71 | 1011.8 |
| 20260506122201 | 7 | 34 | 1.6 | 3.2 | 0.00 | 0.05 | 0.05 | 74 | 1011.9 |
| 20260506121659 | 7 | 335 | 3.2 | 4.8 | 0.00 | 0.05 | 0.05 | 78 | 1011.7 |
| 20260506121155 | 7 | 357 | 4.8 | 4.8 | 0.00 | 0.05 | 0.05 | 78 | 1011.7 |
| 20260506120653 | 7 | 355 | 4.8 | 4.8 | 0.00 | 0.05 | 0.05 | 81 | 1011.5 |
| 20260506120150 | 7 | 336 | 3.2 | 4.8 | 0.00 | 0.05 | 0.05 | 83 | 1011.5 |
| 20260506115648 | 7 | 345 | 1.6 | 3.2 | 0.00 | 0.05 | 0.05 | 86 | 1011.4 |
| 20260506115146 | 7 | 355 | 1.6 | 3.2 | 0.00 | 0.05 | 0.05 | 87 | 1011.3 |
| 20260506114643 | 7 | 324 | 6.4 | 8.0 | 0.00 | 0.05 | 0.05 | 90 | 1011.4 |
| 20260506114141 | 6 | 24 | 1.6 | 3.2 | 0.00 | 0.05 | 0.05 | 93 | 1011.1 |
| 20260506113639 | 6 | 31 | 0.0 | 0.0 | 0.00 | 0.05 | 0.05 | 94 | 1011.1 |
| 20260506113136 | 6 | 39 | 0.0 | 0.0 | 0.00 | 0.05 | 0.05 | 94 | 1011.3 |
| 20260506112632 | 6 | 6 | 0.0 | 0.0 | 0.00 | 0.05 | 0.05 | 94 | 1011.1 |
| 20260506112130 | 6 | 2 | 0.0 | 0.0 | 0.00 | 0.05 | 0.05 | 94 | 1010.7 |
| 20260506111627 | 7 | 72 | 0.0 | 0.0 | 0.00 | 0.05 | 0.05 | 94 | 1010.7 |
| 20260506111125 | 7 | 22 | 0.0 | 0.0 | 0.00 | 0.05 | 0.05 | 94 | 1010.6 |
| 20260506110622 | 7 | 16 | 0.0 | 0.0 | 0.00 | 0.05 | 0.05 | 94 | 1010.9 |
| 20260506110119 | 7 | 16 | 0.0 | 0.0 | 0.00 | 0.05 | 0.05 | 94 | 1010.3 |
| 20260506105616 | 7 | 20 | 0.0 | 0.0 | 0.00 | 0.05 | 0.05 | 94 | 1010.3 |
| 20260506105113 | 7 | 1 | 0.0 | 0.0 | 0.00 | 0.05 | 0.05 | 94 | 1010.4 |
| 20260506104611 | 7 | 17 | 0.0 | 0.0 | 0.00 | 0.05 | 0.05 | 94 | 1010.4 |
| 20260506104108 | 7 | 15 | 0.0 | 0.0 | 0.00 | 0.05 | 0.05 | 94 | 1010.3 |
| 20260506103605 | 7 | 19 | 0.0 | 0.0 | 0.00 | 0.05 | 0.05 | 94 | 1010.2 |
| 20260506103102 | 7 | 21 | 0.0 | 0.0 | 0.00 | 0.05 | 0.05 | 94 | 1010.0 |
| 20260506102600 | 7 | 21 | 0.0 | 0.0 | 0.00 | 0.05 | 0.05 | 94 | 1010.0 |
| 20260506102058 | 7 | 27 | 0.0 | 0.0 | 0.00 | 0.05 | 0.05 | 95 | 1010.1 |
| 20260506101554 | 7 | 296 | 0.0 | 0.0 | 0.00 | 0.05 | 0.05 | 95 | 1010.2 |
| 20260506101051 | 7 | 20 | 0.0 | 0.0 | 0.00 | 0.05 | 0.05 | 95 | 1009.9 |
| 20260506100549 | 7 | 29 | 0.0 | 0.0 | 0.00 | 0.05 | 0.05 | 94 | 1009.8 |
| 20260506100047 | 6 | 343 | 0.0 | 0.0 | 0.00 | 0.05 | 0.05 | 95 | 1009.7 |
| 20260506095546 | 6 | 349 | 0.0 | 0.0 | 0.00 | 0.05 | 0.05 | 94 | 1009.7 |
| 20260506095042 | 6 | 32 | 0.0 | 1.6 | 0.00 | 0.05 | 0.05 | 94 | 1009.8 |
| 20260506094539 | 6 | 9 | 0.0 | 1.6 | 0.00 | 0.05 | 0.05 | 94 | 1009.8 |
| 20260506094037 | 6 | 344 | 0.0 | 0.0 | 0.00 | 0.05 | 0.05 | 94 | 1009.8 |
| 20260506093536 | 6 | 28 | 0.0 | 0.0 | 0.00 | 0.05 | 0.05 | 94 | 1010.1 |
| 20260506093033 | 6 | 309 | 0.0 | 0.0 | 0.00 | 0.05 | 0.05 | 94 | 1009.7 |
| 20260506092530 | 6 | 107 | 0.0 | 0.0 | 0.00 | 0.05 | 0.05 | 94 | 1010.0 |
| 20260506092027 | 6 | 160 | 0.0 | 0.0 | 0.00 | 0.05 | 0.05 | 94 | 1009.8 |
| 20260506091525 | 6 | 73 | 0.0 | 0.0 | 0.00 | 0.05 | 0.05 | 94 | 1009.8 |
| 20260506091022 | 6 | 321 | 0.0 | 0.0 | 0.00 | 0.05 | 0.05 | 94 | 1009.8 |
| 20260506090520 | 6 | 95 | 0.0 | 0.0 | 0.00 | 0.05 | 0.05 | 94 | 1009.9 |
| 20260506090016 | 6 | 170 | 0.0 | 0.0 | 0.00 | 0.05 | 0.05 | 94 | 1009.8 |
| 20260506085513 | 6 | 192 | 0.0 | 0.0 | 0.00 | 0.05 | 0.05 | 93 | 1009.6 |
| 20260506085009 | 6 | 137 | 0.0 | 0.0 | 0.00 | 0.05 | 0.05 | 94 | 1009.7 |
| 20260506084506 | 6 | 72 | 0.0 | 0.0 | 0.00 | 0.05 | 0.05 | 94 | 1009.7 |
| 20260506084002 | 6 | 27 | 0.0 | 0.0 | 0.00 | 0.05 | 0.05 | 94 | 1009.6 |
| 20260506083500 | 6 | 156 | 0.0 | 0.0 | 0.00 | 0.05 | 0.05 | 94 | 1009.4 |
| 20260506082957 | 6 | 42 | 0.0 | 0.0 | 0.00 | 0.05 | 0.05 | 94 | 1009.6 |
| 20260506082454 | 6 | 221 | 0.0 | 0.0 | 0.00 | 0.05 | 0.05 | 94 | 1009.4 |
| 20260506081949 | 6 | 96 | 0.0 | 0.0 | 0.00 | 0.05 | 0.05 | 94 | 1009.6 |
| 20260506081448 | 6 | 96 | 0.0 | 0.0 | 0.00 | 0.05 | 0.05 | 94 | 1009.5 |
| 20260506080945 | 6 | 129 | 0.0 | 0.0 | 0.00 | 0.05 | 0.05 | 94 | 1009.7 |
| 20260506080442 | 6 | 194 | 3.2 | 3.2 | 0.00 | 0.05 | 0.05 | 94 | 1009.8 |